COSMOS 2251 DEB, 35890

Orbit data source: Space-Track

COSMOS 2251 DEB, 35890 is space debris in LEO originally from a launch on Wed, 16 Jun 1993 UTC launched from the Plesetsk Missile And Space Complex (PKMTR). The debris from Iridium 33, an American commercial communications satellite, has been tracked extensively since its accidental collision with the defunct Russian satellite Cosmos 2251 in 2009. This event, occurring at high speed in low Earth orbit (LEO), generated thousands of pieces of space debris, significantly increasing the risk of further collisions. The Iridium 33 debris cloud has impacted space traffic management and orbital debris mitigation strategies, making it a subject of ongoing study in space situational awareness.

Loading next visibility...
Identifier
35890, 1993-036AUD
Orbit
LEO
Country
Flag of CISCIS
Related business
Manufacturer
Unknown
Mission
Spacecraft
Bus & Motor
Unknown
Mass
Unknown
Launch date (UTC)
1993-06-16 (33 years ago)
Launch vehicle
Unknown
Launch site
Plesetsk Missile And Space Complex (PKMTR)
Object type
Payload
Rocket body
Debris
Shape & HBR
Unknown shape, 0.1 m
Radar Cross Section
Small (<0.1 m²)

Expand to show TLE details & history
Last TLE update: 19 hours ago

TLE from 19 hours ago
0 COSMOS 2251 DEB
1 35890U 93036AUD 26257.17810910  .00004672  00000-0  94066-3 0  9992
2 35890  73.9334  74.2679 0053695 137.8640 222.6673 14.60912286691696
Epoch: 2026-09-14T04:16Z
TLE epoch observation values (Epoch: 2026-09-14T04:16:28.626Z)
Latitude
-0.00004°
Longitude
16.98647°
Altitude
720.871 km
Speed
7.48 km/s
True Right ascension
04h 57m 04s
True Declination
0° 00' 00"
Sunlit
Object was in daylight at epoch
Visualization orbit readout
Latitude
Unknown
Longitude
Unknown
Altitude
Unknown
Speed
Unknown
Apparent Right ascension
Unknown
Apparent Declination
Unknown
Sunlit
N/A
Visualization observer readout
Local Sidereal Time
15:25:57
Azimuth
Unknown
Elevation
Unknown
Doppler factor
Unknown
Orbital elements
Apogee altitude
725.776 km
Perigee altitude
649.894 km
Semi-major axis
7,065.972 km
Eccentricity
0.00537
Inclination
73.9334°
RAAN
74.2679°
Arg. of periapsis
137.864°
True anomaly
222.25234°
Mean anomaly
222.6673°
Eccentric anomaly
222.45961°
Mean motion
3.65414 °/min
Orbital period
98.52 mins
BSTAR
0.00094066
Loading maneuver chart data...
Computing Atmospheric mass density...

Documentation

Showing up to 5 results
|